Weather reports worldwide

Advertisment
Deauville, France (7031): temperature & dewpoint: 06.12.2018 00:00:00 - 12.12.2018 00:00:00 (CET)Deauville, France (7031): temperature 5cm: 06.12.2018 00:00:00 - 12.12.2018 00:00:00 (CET)Deauville, France (7031): wind speed & gusts: 06.12.2018 00:00:00 - 12.12.2018 00:00:00 (CET)Deauville, France (7031): wind direction: 06.12.2018 00:00:00 - 12.12.2018 00:00:00 (CET)Deauville, France (7031): reduced air pressure: 06.12.2018 00:00:00 - 12.12.2018 00:00:00 (CET)Deauville, France (7031): visibility: 06.12.2018 00:00:00 - 12.12.2018 00:00:00 (CET)Deauville, France (7031): precipitation: 06.12.2018 00:00:00 - 12.12.2018 00:00:00 (CET)
Date & Time tt [°C] td [°C] tt 5cm [°C] ff [km/h] ff [kn] fx [km/h] fx [kn] dd ppp [hPa] vv [km] rr [mm]
12.12.2018 00:00:00 4,5 3,3 3,2 14 7 25 14 SE 1023,1 21 0,0
11.12.2018 23:00:00 4,4 3,5 0,5 13 7 24 13 SE 1023,4 18 0,0
11.12.2018 22:00:00 3,6 2,9 0,0 7 4 18 10 SE 1023,7 12 0,0
11.12.2018 21:00:00 3,8 3,1 -2,1 9 5 16 8 SE 1024,0 14 0,0
11.12.2018 20:00:00 3,5 2,6 -2,0 7 4 12 6 SE 1024,3 17 0,0
11.12.2018 19:00:00 4,0 2,5 -1,2 5 3 12 6 SE 1024,5 23 0,0
11.12.2018 18:00:00 4,9 3,4 -1,6 7 4 11 6 ESE 1024,2 38 0,0
11.12.2018 17:00:00 5,7 3,4 0,9 5 3 10 6 ESE 1024,2 13 0,0
11.12.2018 16:00:00 8,4 4,2 8,8 5 3 16 9 SSE 1024,2 55 0,0
11.12.2018 15:00:00 9,6 4,4 10,0 9 5 18 10 ESE 1024,3 40 0,0
11.12.2018 14:00:00 9,8 4,8 14,0 6 4 17 9 SE 1024,7 44 0,0
11.12.2018 13:00:00 9,1 4,9 11,2 9 5 16 8 SE 1025,6 46 0,0
11.12.2018 12:00:00 8,5 5,2 7,8 8 4 13 7 SSE 1026,4 39 0,0
11.12.2018 11:00:00 6,8 5,9 -0,5 8 5 12 7 S 1026,7 46 0,2
11.12.2018 10:00:00 4,7 4,7 -3,6 4 2 8 4 SSW 1026,7 12 0,0
11.12.2018 09:00:00 2,8 2,8 -3,8 4 2 9 5 SSW 1026,9 4,3 0,0
11.12.2018 08:00:00 2,3 2,3 -3,9 4 2 6 3 SSW 1027,4 0,5 0,0
11.12.2018 07:00:00 2,2 2,2 -3,5 6 3 8 4 SSW 1027,0 0,4 0,0
11.12.2018 06:00:00 2,6 2,5 -3,5 4 2 6 4 SSE 1027,3 0,4 0,0
11.12.2018 05:00:00 2,8 2,7 -3,4 6 3 8 4 S 1027,5 0,9 0,0
11.12.2018 04:00:00 2,7 2,4 -3,1 3 2 6 3 S 1028,2 1,1 0,0
11.12.2018 03:00:00 2,4 2,0 -2,6 5 3 8 5 SW 1028,4 2,5 0,0
11.12.2018 02:00:00 2,3 1,1 -2,1 5 3 8 4 SW 1028,6 1,3 0,0
11.12.2018 01:00:00 5,5 3,3 -1,2 6 3 11 6 WNW 1028,7 47 0,0
11.12.2018 00:00:00 5,6 3,8 0,4 4 2 11 6 WNW 1029,0 45 0,0
10.12.2018 23:00:00 6,2 4,0 -0,4 6 3 10 6 WNW 1029,1 52 0,0
10.12.2018 22:00:00 6,3 2,9 0,7 6 3 13 7 WNW 1029,1 59 0,0
10.12.2018 21:00:00 7,2 4,2 2,4 7 4 17 9 WNW 1029,1 58 0,0
10.12.2018 20:00:00 8,2 4,2 5,1 7 4 21 11 NW 1029,4 60 0,0
10.12.2018 19:00:00 8,4 4,2 5,8 9 5 21 11 NW 1029,4 59 0,0
10.12.2018 18:00:00 8,2 3,6 6,0 9 5 21 12 WNW 1029,4 60 0,0
10.12.2018 17:00:00 8,9 3,7 7,6 11 6 26 14 WNW 1029,4 60 0,0
10.12.2018 16:00:00 9,3 4,3 9,0 13 7 27 14 WNW 1029,4 59 0,0
10.12.2018 15:00:00 9,6 4,2 9,5 13 7 32 18 NW 1029,4 49 0,0
10.12.2018 14:00:00 9,8 4,2 8,0 13 7 31 17 WNW 1029,3 34 0,0
10.12.2018 13:00:00 9,3 3,9 9,2 15 8 33 18 WNW 1029,7 59 0,0
10.12.2018 12:00:00 9,8 4,2 8,7 16 8 39 21 WNW 1029,8 44 0,0
10.12.2018 11:00:00 9,4 4,0 7,7 16 9 35 19 WNW 1029,6 52 0,0
10.12.2018 10:00:00 8,7 4,3 7,0 15 8 41 22 NW 1029,1 43 0,0
10.12.2018 09:00:00 8,6 4,6 6,6 13 7 34 19 WNW 1028,7 44 0,0
10.12.2018 08:00:00 8,4 3,6 6,6 17 9 37 20 NW 1028,5 54 0,0
10.12.2018 07:00:00 8,5 3,9 6,8 17 9 46 25 NW 1028,1 43 0,0
10.12.2018 06:00:00 9,0 4,8 7,1 17 9 39 21 NW 1027,6 39 0,0
10.12.2018 05:00:00 9,2 5,0 7,0 19 10 40 22 NW 1027,0 43 0,0
10.12.2018 04:00:00 9,2 5,6 6,8 17 9 40 22 WNW 1026,7 52 0,2
10.12.2018 03:00:00 9,1 5,8 6,9 18 10 39 21 NW 1026,5 55 0,0
10.12.2018 02:00:00 9,0 6,6 6,6 14 7 54 29 WNW 1026,0 45 0,6
10.12.2018 01:00:00 8,5 5,4 6,9 23 12 54 29 WNW 1026,0 6 0,4
10.12.2018 00:00:00 9,6 5,0 7,4 21 11 40 22 WNW 1025,4 45 0,0
09.12.2018 23:00:00 9,7 5,7 7,7 19 10 41 22 WNW 1024,7 40 0,0
09.12.2018 22:00:00 9,7 6,0 7,6 19 10 46 25 NW 1024,3 39 0,0
09.12.2018 21:00:00 9,8 6,0 7,5 18 10 39 21 NW 1023,4 39 0,2
09.12.2018 20:00:00 9,1 6,4 7,6 21 11 45 25 WNW 1022,5 10 0,6
09.12.2018 19:00:00 10,0 6,2 7,5 22 12 50 27 NW 1021,6 42 0,0
09.12.2018 18:00:00 9,8 7,2 8,2 24 13 58 31 WNW 1020,0 19 1,4
09.12.2018 17:00:00 10,0 7,8 8,9 23 12 60 32 WNW 1018,6 8 0,4
09.12.2018 16:00:00 10,8 7,3 9,4 29 16 55 30 WNW 1016,8 20 0,0
09.12.2018 15:00:00 10,8 7,1 9,2 29 15 68 37 WNW 1015,6 20 0,2
09.12.2018 14:00:00 11,1 7,4 8,5 33 18 77 42 WNW 1014,3 19 0,2
09.12.2018 13:00:00 10,5 8,4 8,7 31 17 80 43 W 1013,3 12 0,2
09.12.2018 12:00:00 10,5 8,3 8,8 39 21 68 37 W 1012,3 11 0,6
09.12.2018 11:00:00 9,7 8,1 8,8 39 21 74 40 W 1011,9 6 0,2
09.12.2018 10:00:00 10,0 7,4 8,8 41 22 67 36 W 1010,9 13 0,0
09.12.2018 09:00:00 9,6 7,2 8,2 37 20 72 39 W 1010,5 13 0,0
09.12.2018 08:00:00 9,2 7,0 7,7 39 21 68 37 W 1009,7 14 0,0
09.12.2018 07:00:00 9,0 6,8 7,7 38 21 67 36 WSW 1009,6 11 1,0
09.12.2018 06:00:00 9,6 5,9 8,6 36 19 70 38 W 1009,2 13 0,0
09.12.2018 05:00:00 9,4 5,2 7,4 37 20 62 34 WSW 1009,0 14 0,0
09.12.2018 04:00:00 8,5 5,2 7,3 31 17 65 35 WSW 1009,2 16 0,0
09.12.2018 03:00:00 8,9 5,5 7,9 39 21 74 40 W 1009,0 18 0,0
09.12.2018 02:00:00 9,5 4,5 8,4 45 24 95 51 W 1008,3 19 0,0
09.12.2018 01:00:00 9,9 5,7 8,9 36 20 62 34 WSW 1007,8 16 0,0
09.12.2018 00:00:00 10,2 7,4 8,9 33 18 73 40 W 1008,0 10 0,0
08.12.2018 23:00:00 10,0 7,6 8,3 41 22 86 46 W 1007,5 12 0,0
08.12.2018 22:00:00 10,5 8,3 9,2 47 26 89 48 WSW 1007,4 9 0,2
08.12.2018 21:00:00 11,0 7,7 9,4 33 18 66 36 WSW 1007,3 12 0,0
08.12.2018 20:00:00 11,2 8,6 9,4 35 19 67 36 W 1007,4 12 0,0
08.12.2018 19:00:00 11,5 9,7 10,4 35 19 65 35 WSW 1007,6 19 0,2
08.12.2018 18:00:00 11,1 10,5 10,4 29 16 57 31 WSW 1007,4 2,3 0,6
08.12.2018 17:00:00 11,1 9,7 10,2 28 15 59 32 SW 1008,1 58 0,0
08.12.2018 16:00:00 10,9 9,0 9,6 28 15 62 34 SSW 1009,2 60 0,0
08.12.2018 15:00:00 10,2 8,6 9,0 28 15 53 29 SSW 1010,6 59 0,0
08.12.2018 14:00:00 9,5 8,1 8,6 25 14 56 30 SW 1011,9 20 0,0
08.12.2018 13:00:00 8,6 8,0 8,5 24 13 44 24 SW 1013,3 8 0,4
08.12.2018 12:00:00 9,1 7,2 8,6 17 9 48 26 SSW 1014,3 10 0,0
08.12.2018 11:00:00 10,0 6,5 8,2 25 14 55 30 WSW 1014,6 20 0,0
08.12.2018 10:00:00 9,7 6,0 7,7 25 14 48 26 WSW 1014,5 19 0,0
08.12.2018 09:00:00 9,0 6,6 7,4 20 11 44 24 WSW 1014,4 13 1,0
08.12.2018 08:00:00 9,2 5,7 7,1 26 14 55 30 WSW 1014,1 16 0,6
08.12.2018 07:00:00 8,1 6,2 6,3 20 11 37 20 SW 1013,6 16 0,6
08.12.2018 06:00:00 7,5 6,1 5,8 20 11 44 24 SW 1013,7 20 0,0
08.12.2018 05:00:00 7,4 5,9 5,8 19 10 49 26 SW 1013,5 20 0,0
08.12.2018 04:00:00 7,4 5,7 6,0 27 15 58 31 SW 1013,5 17 0,0
08.12.2018 03:00:00 7,0 5,6 5,3 26 14 47 26 SW 1013,7 10 0,2
08.12.2018 02:00:00 6,6 5,4 5,5 24 13 42 23 SW 1014,1 40 0,4
08.12.2018 01:00:00 6,6 4,8 4,6 21 11 39 21 SW 1014,2 39 0,0
08.12.2018 00:00:00 6,1 3,9 4,4 22 12 36 20 SW 1014,3 42 0,0
07.12.2018 23:00:00 6,7 4,2 4,9 20 11 42 23 SSW 1014,2 45 0,0
07.12.2018 22:00:00 6,9 4,0 4,7 24 13 54 29 WSW 1014,0 53 0,0
07.12.2018 21:00:00 7,2 4,5 5,4 38 20 61 33 W 1013,7 10 0,2
07.12.2018 20:00:00 7,4 3,6 5,0 25 14 46 25 WSW 1012,8 35 0,0
07.12.2018 19:00:00 7,1 3,3 4,8 25 14 49 26 WSW 1011,8 46 0,0
07.12.2018 18:00:00 8,0 3,8 5,3 30 16 63 34 W 1011,0 40 0,0
07.12.2018 17:00:00 7,9 5,0 6,6 31 17 67 36 WSW 1009,6 8 0,4
07.12.2018 16:00:00 8,7 5,3 6,8 27 15 70 38 W 1008,4 16 0,4
07.12.2018 15:00:00 10,0 6,9 8,4 33 18 56 31 W 1007,3 18 0,0
07.12.2018 14:00:00 8,8 7,6 7,9 30 16 59 32 WSW 1006,6 18 0,4
07.12.2018 13:00:00 9,2 8,3 8,9 35 19 88 48 W 1006,4 6 2,6
07.12.2018 12:00:00 11,3 10,4 10,4 29 15 51 28 S 1004,7 7 0,4
07.12.2018 11:00:00 10,8 9,7 10,3 27 15 53 29 S 1006,6 12 1,0
07.12.2018 10:00:00 11,9 8,6 11,1 30 16 53 29 S 1008,1 57 0,0
07.12.2018 09:00:00 11,8 9,2 11,1 29 16 48 26 SSW 1010,1 60 0,0
07.12.2018 08:00:00 11,7 9,6 10,9 31 17 55 30 SSW 1011,2 60 0,0
07.12.2018 07:00:00 11,6 10,0 10,9 31 17 51 28 SSW 1012,0 18 0,0
07.12.2018 06:00:00 11,4 10,1 11,0 24 13 49 26 SSW 1013,4 11 0,0
07.12.2018 05:00:00 11,4 10,3 11,1 23 13 48 26 SSW 1014,7 12 0,0
07.12.2018 04:00:00 11,9 10,1 11,5 27 15 53 29 SSW 1015,5 60 0,0
07.12.2018 03:00:00 11,9 10,1 11,3 28 15 48 26 SSW 1016,2 60 0,0
07.12.2018 02:00:00 11,6 10,0 11,2 24 13 42 23 SSW 1017,2 55 0,0
07.12.2018 01:00:00 11,6 9,8 11,0 26 14 41 22 SSW 1017,9 44 0,0
07.12.2018 00:00:00 11,4 9,5 10,9 23 12 39 21 SSW 1018,6 17 0,0
06.12.2018 23:00:00 11,5 9,4 10,9 26 14 41 22 SSW 1019,2 16 0,0
06.12.2018 22:00:00 11,5 8,9 10,9 21 11 40 22 SSW 1019,8 37 0,0
06.12.2018 21:00:00 11,6 9,0 10,7 22 12 37 20 SSW 1020,2 38 0,0
06.12.2018 20:00:00 11,5 8,9 10,6 21 11 39 21 SSW 1020,5 42 0,0
06.12.2018 19:00:00 11,6 9,2 10,4 21 11 35 19 SW 1020,3 33 0,0
06.12.2018 18:00:00 11,4 9,1 10,4 22 12 35 19 SSW 1020,3 33 0,0
06.12.2018 17:00:00 11,5 9,6 10,7 21 11 38 21 SW 1020,7 36 0,0
06.12.2018 16:00:00 11,8 10,2 11,3 23 12 37 20 WSW 1020,4 54 0,0
06.12.2018 15:00:00 12,2 10,8 11,8 20 11 38 20 WSW 1020,2 60 0,0
06.12.2018 14:00:00 12,0 10,9 11,7 19 10 38 21 WSW 1020,5 59 0,0
06.12.2018 13:00:00 12,1 11,0 11,5 19 10 40 22 WSW 1020,4 60 0,0
06.12.2018 12:00:00 11,6 11,0 11,4 19 10 32 17 SW 1020,3 60 0,0
06.12.2018 11:00:00 11,4 11,1 11,3 17 9 39 21 WSW 1020,3 3,3 0,0
06.12.2018 10:00:00 11,5 11,2 11,1 16 9 32 17 WSW 1019,9 13 0,2
06.12.2018 09:00:00 11,2 10,9 11,0 14 7 35 19 WSW 1019,1 7 0,0
06.12.2018 08:00:00 11,4 10,9 11,2 19 10 30 16 WSW 1018,7 4,2 0,2
06.12.2018 07:00:00 11,7 11,2 11,3 18 10 31 17 WSW 1018,0 60 0,0
06.12.2018 06:00:00 11,8 11,5 11,5 19 10 33 18 WSW 1017,4 8 0,0
06.12.2018 05:00:00 11,8 11,5 11,5 15 8 30 16 W 1017,2 6 0,2
06.12.2018 04:00:00 11,8 11,5 11,3 21 11 31 17 WSW 1016,9 30 0,0
06.12.2018 03:00:00 11,6 11,3 10,7 14 7 23 12 SW 1016,0 8 0,0
06.12.2018 02:00:00 11,4 10,9 10,4 12 6 19 11 SSW 1015,2 19 0,0
06.12.2018 01:00:00 11,5 10,9 10,8 11 6 20 11 SSW 1015,0 18 0,0
06.12.2018 00:00:00 11,7 11,1 11,3 11 6 20 11 SW 1015,1 17 0,6

tt = temperature
td = dewpoint
tt 5cm = temperature 5cm
ff = wind speed
fx = gusts
dd = wind direction
ppp = reduced air pressure
vv = visibility
rr = precipitation

Next stations